THY5CS LTFM-EDDW

Flight info

Callsign THY5CS
Flight time 2h 47m
Altitude 36000
Route IBLAX P727 BGS L622 GONGO DCT RASUB DCT BKS DCT TURIS DCT ODLIV DCT HDO DCT MILGU DCT KOSIX L986 SAS Z88 VERED VERED3P
Aircraft A320/M-SDE3FGHIRWY/LB1

Departure

Time 2026-05-05 12:53
Airport İstanbul Airport (LTFM)

Arrival

Time 2026-05-05 15:41
Airport Bremen Airport (EDDW)
Time Latitude Longitude Altitude Speed Heading
2026-05-05 12:27 41.26673 28.74140 334 ft 0 kts 91°
2026-05-05 12:43 41.26673 28.74115 330 ft 4 kts 89°
2026-05-05 12:44 41.26672 28.74079 330 ft 4 kts 82°
2026-05-05 12:44 41.26665 28.74045 329 ft 4 kts 63°
2026-05-05 12:44 41.26651 28.74023 330 ft 3 kts
2026-05-05 12:44 41.26644 28.74022 331 ft 1 kts 359°
2026-05-05 12:45 41.26643 28.74022 331 ft 0 kts 359°
2026-05-05 12:48 41.26651 28.74022 330 ft 2 kts
2026-05-05 12:48 41.26676 28.74023 331 ft 5 kts
2026-05-05 12:48 41.26737 28.74020 332 ft 10 kts 356°
2026-05-05 12:49 41.26823 28.74017 332 ft 15 kts 358°
2026-05-05 12:49 41.26876 28.73920 334 ft 16 kts 269°
2026-05-05 12:49 41.26874 28.73767 332 ft 17 kts 269°
2026-05-05 12:49 41.26871 28.73599 330 ft 19 kts 269°
2026-05-05 12:50 41.26869 28.73413 333 ft 21 kts 269°
2026-05-05 12:50 41.26867 28.73227 334 ft 18 kts 268°
2026-05-05 12:50 41.26866 28.73083 334 ft 16 kts 271°
2026-05-05 12:50 41.26799 28.72993 334 ft 17 kts 181°
2026-05-05 12:51 41.26679 28.72995 331 ft 18 kts 178°
2026-05-05 12:51 41.26591 28.72920 334 ft 17 kts 264°
2026-05-05 12:51 41.26593 28.72753 334 ft 19 kts 269°
2026-05-05 12:51 41.26590 28.72579 334 ft 17 kts 271°
2026-05-05 12:52 41.26678 28.72513 334 ft 17 kts
2026-05-05 12:52 41.26775 28.72512 331 ft 10 kts 360°
2026-05-05 12:52 41.26852 28.72511 334 ft 14 kts 359°
2026-05-05 12:52 41.27108 28.72505 331 ft 68 kts 359°
2026-05-05 12:53 41.27767 28.72489 332 ft 119 kts 359°
2026-05-05 12:53 41.28729 28.72466 335 ft 158 kts 359°
2026-05-05 12:53 41.29882 28.72427 688 ft 168 kts 358°
2026-05-05 12:53 41.31061 28.72387 1326 ft 170 kts 359°
2026-05-05 12:54 41.33456 28.72448 2532 ft 179 kts
2026-05-05 12:54 41.34727 28.72458 2956 ft 188 kts 359°
2026-05-05 12:54 41.36089 28.72447 3252 ft 205 kts 358°
2026-05-05 12:55 41.37612 28.72416 3441 ft 233 kts 357°
2026-05-05 12:55 41.39232 28.71976 3928 ft 246 kts 334°
2026-05-05 12:55 41.40758 28.70933 4825 ft 249 kts 333°
2026-05-05 12:55 41.42313 28.69895 5658 ft 251 kts 334°
2026-05-05 12:56 41.43895 28.68876 6492 ft 254 kts 334°
2026-05-05 12:56 41.45467 28.67765 7265 ft 257 kts 333°
2026-05-05 12:56 41.47045 28.66592 7833 ft 262 kts 333°
2026-05-05 12:56 41.48637 28.65396 8175 ft 264 kts 333°
2026-05-05 12:57 41.50237 28.64199 9023 ft 264 kts 333°
2026-05-05 12:57 41.51824 28.63018 9809 ft 266 kts 333°
2026-05-05 12:57 41.53462 28.61804 10338 ft 278 kts 333°
2026-05-05 12:57 41.55222 28.60510 10494 ft 300 kts 333°
2026-05-05 12:58 41.57093 28.59133 10852 ft 312 kts 333°
2026-05-05 12:58 41.59011 28.57721 11454 ft 317 kts 333°
2026-05-05 12:58 41.60952 28.56289 12093 ft 320 kts 333°
2026-05-05 12:58 41.62914 28.54842 12722 ft 324 kts 333°
2026-05-05 12:59 41.64899 28.53375 13352 ft 328 kts 333°
2026-05-05 12:59 41.66904 28.51892 13970 ft 331 kts 333°
2026-05-05 12:59 41.68931 28.50393 14530 ft 335 kts 333°
2026-05-05 13:00 41.73016 28.47373 15636 ft 341 kts 333°
2026-05-05 13:00 41.75103 28.45830 16173 ft 344 kts 333°
2026-05-05 13:01 41.81457 28.41127 17892 ft 350 kts 333°
2026-05-05 13:01 41.83596 28.39540 18447 ft 353 kts 333°
2026-05-05 13:01 41.85757 28.37936 18939 ft 356 kts 333°
2026-05-05 13:01 41.87936 28.36318 19432 ft 360 kts 333°
2026-05-05 13:02 41.90108 28.34703 19912 ft 363 kts 333°
2026-05-05 13:02 41.92326 28.33052 20401 ft 367 kts 333°
2026-05-05 13:02 41.94453 28.31120 20856 ft 373 kts 323°
2026-05-05 13:02 41.96496 28.28927 21281 ft 378 kts 323°
2026-05-05 13:03 41.98550 28.26703 21729 ft 381 kts 323°
2026-05-05 13:03 42.00621 28.24450 22180 ft 385 kts 323°
2026-05-05 13:03 42.02707 28.22174 22629 ft 388 kts 323°
2026-05-05 13:03 42.04816 28.19879 23078 ft 392 kts 323°
2026-05-05 13:04 42.06916 28.17598 23514 ft 395 kts 323°
2026-05-05 13:04 42.09062 28.15266 23894 ft 398 kts 322°
2026-05-05 13:04 42.11225 28.12913 24265 ft 401 kts 322°
2026-05-05 13:04 42.13400 28.10540 24626 ft 403 kts 322°
2026-05-05 13:05 42.15587 28.08155 24983 ft 406 kts 322°
2026-05-05 13:05 42.17782 28.05760 25396 ft 406 kts 322°
2026-05-05 13:05 42.19982 28.03357 25785 ft 408 kts 322°
2026-05-05 13:05 42.22192 28.00939 26091 ft 411 kts 322°
2026-05-05 13:06 42.24394 27.98527 26361 ft 415 kts 322°
2026-05-05 13:06 42.26645 27.96060 26668 ft 418 kts 322°
2026-05-05 13:06 42.28909 27.93578 26984 ft 421 kts 322°
2026-05-05 13:06 42.31188 27.91081 27299 ft 423 kts 322°
2026-05-05 13:07 42.33478 27.88569 27620 ft 425 kts 322°
2026-05-05 13:07 42.35774 27.86043 28034 ft 424 kts 323°
2026-05-05 13:07 42.38060 27.83519 28458 ft 424 kts 322°
2026-05-05 13:07 42.40349 27.80990 28799 ft 426 kts 322°
2026-05-05 13:08 42.42651 27.78447 29115 ft 428 kts 323°
2026-05-05 13:08 42.44934 27.75930 29427 ft 430 kts 323°
2026-05-05 13:08 42.47256 27.73371 29798 ft 431 kts 323°
2026-05-05 13:08 42.49578 27.70805 30188 ft 431 kts 322°
2026-05-05 13:09 42.51908 27.68223 30387 ft 435 kts 322°
2026-05-05 13:09 42.54234 27.65604 30766 ft 434 kts 319°
2026-05-05 13:09 42.56307 27.62634 31186 ft 433 kts 314°
2026-05-05 13:09 42.58330 27.59607 31572 ft 433 kts 314°
2026-05-05 13:10 42.60348 27.56581 31938 ft 432 kts 314°
2026-05-05 13:10 42.62362 27.53552 32294 ft 432 kts 314°
2026-05-05 13:10 42.64377 27.50514 32649 ft 432 kts 314°
2026-05-05 13:10 42.66361 27.47520 32999 ft 432 kts 314°
2026-05-05 13:11 42.68373 27.44482 33353 ft 432 kts 314°
2026-05-05 13:11 42.70364 27.41466 33911 ft 426 kts 314°
2026-05-05 13:11 42.72334 27.38478 34329 ft 423 kts 314°
2026-05-05 13:11 42.74300 27.35497 34643 ft 422 kts 314°
2026-05-05 13:12 42.76260 27.32529 34933 ft 422 kts 314°
2026-05-05 13:12 42.78218 27.29560 35204 ft 421 kts 314°
2026-05-05 13:12 42.80176 27.26592 35470 ft 421 kts 313°
2026-05-05 13:12 42.82112 27.23652 35604 ft 424 kts 313°
2026-05-05 13:13 42.84081 27.20657 35785 ft 425 kts 313°
2026-05-05 13:13 42.86049 27.17657 35993 ft 424 kts 314°
2026-05-05 13:13 42.90001 27.11614 36040 ft 430 kts 313°
2026-05-05 13:14 42.93990 27.05518 36041 ft 431 kts 313°
2026-05-05 13:14 42.97982 26.99402 36038 ft 431 kts 313°
2026-05-05 13:15 43.01926 26.93340 36038 ft 427 kts 314°
2026-05-05 13:15 43.05855 26.87291 36035 ft 426 kts 314°
2026-05-05 13:16 43.09787 26.81225 36041 ft 426 kts 313°
2026-05-05 13:16 43.13722 26.75146 36052 ft 427 kts 313°
2026-05-05 13:17 43.17633 26.69081 36036 ft 428 kts 313°
2026-05-05 13:17 43.21565 26.62965 36046 ft 427 kts 313°
2026-05-05 13:18 43.25497 26.56861 36044 ft 427 kts 313°
2026-05-05 13:18 43.29422 26.50745 36048 ft 427 kts 313°
2026-05-05 13:19 43.33335 26.44619 36045 ft 426 kts 313°
2026-05-05 13:19 43.37215 26.38542 36051 ft 425 kts 313°
2026-05-05 13:20 43.41114 26.32432 36053 ft 425 kts 313°
2026-05-05 13:20 43.45003 26.26322 36058 ft 424 kts 313°
2026-05-05 13:21 43.48886 26.20203 36039 ft 424 kts 313°
2026-05-05 13:21 43.52735 26.14119 36043 ft 423 kts 313°
2026-05-05 13:22 43.56604 26.08000 36046 ft 423 kts 313°
2026-05-05 13:22 43.60468 26.01873 36042 ft 423 kts 313°
2026-05-05 13:23 43.64329 25.95742 36042 ft 423 kts 313°
2026-05-05 13:23 43.68189 25.89602 36042 ft 423 kts 313°
2026-05-05 13:24 43.72014 25.83494 36039 ft 423 kts 313°
2026-05-05 13:24 43.75866 25.77338 36039 ft 423 kts 313°
2026-05-05 13:25 43.79713 25.71177 36032 ft 423 kts 313°
2026-05-05 13:25 43.83545 25.65008 36039 ft 422 kts 313°
2026-05-05 13:26 43.87370 25.58840 36034 ft 422 kts 313°
2026-05-05 13:26 43.91169 25.52709 36034 ft 422 kts 313°
2026-05-05 13:27 43.94990 25.46539 36021 ft 421 kts 313°
2026-05-05 13:27 43.98812 25.40377 36027 ft 421 kts 314°
2026-05-05 13:28 44.02839 25.34503 36029 ft 419 kts 317°
2026-05-05 13:28 44.06948 25.28829 36026 ft 419 kts 317°
2026-05-05 13:29 44.11057 25.23068 36013 ft 419 kts 316°
2026-05-05 13:29 44.15115 25.17238 36017 ft 419 kts 316°
2026-05-05 13:30 44.19160 25.11379 36014 ft 419 kts 316°
2026-05-05 13:30 44.23184 25.05563 36018 ft 419 kts 316°
2026-05-05 13:31 44.27236 24.99708 36014 ft 419 kts 316°
2026-05-05 13:31 44.31290 24.93851 36009 ft 419 kts 316°
2026-05-05 13:32 44.35310 24.88029 36015 ft 419 kts 316°
2026-05-05 13:32 44.39350 24.82151 36014 ft 419 kts 316°
2026-05-05 13:33 44.43382 24.76266 36023 ft 419 kts 316°
2026-05-05 13:33 44.47419 24.70366 36007 ft 420 kts 315°
2026-05-05 13:34 44.51430 24.64502 36005 ft 420 kts 315°
2026-05-05 13:34 44.55462 24.58581 36011 ft 420 kts 315°
2026-05-05 13:35 44.59497 24.52655 36013 ft 420 kts 315°
2026-05-05 13:35 44.63530 24.46725 35997 ft 420 kts 315°
2026-05-05 13:36 44.67555 24.40793 36003 ft 420 kts 315°
2026-05-05 13:36 44.71545 24.34885 36009 ft 419 kts 315°
2026-05-05 13:37 44.75551 24.28936 36009 ft 419 kts 315°
2026-05-05 13:37 44.79561 24.22970 36001 ft 420 kts 315°
2026-05-05 13:38 44.83571 24.16997 36003 ft 420 kts 315°
2026-05-05 13:38 44.87552 24.11060 36006 ft 419 kts 315°
2026-05-05 13:39 44.91557 24.05081 36006 ft 419 kts 315°
2026-05-05 13:39 44.95555 23.99087 36009 ft 419 kts 315°
2026-05-05 13:40 44.99546 23.93090 36005 ft 419 kts 314°
2026-05-05 13:40 45.03542 23.87083 35998 ft 419 kts 314°
2026-05-05 13:41 45.07526 23.81069 36004 ft 419 kts 314°
2026-05-05 13:41 45.11483 23.75088 36011 ft 419 kts 314°
2026-05-05 13:42 45.15457 23.69064 36001 ft 419 kts 314°
2026-05-05 13:42 45.19432 23.63025 36012 ft 419 kts 314°
2026-05-05 13:43 45.23406 23.56982 36016 ft 419 kts 314°
2026-05-05 13:43 45.27350 23.50967 36022 ft 419 kts 314°
2026-05-05 13:44 45.31320 23.44902 36026 ft 419 kts 314°
2026-05-05 13:44 45.35287 23.38831 36037 ft 419 kts 314°
2026-05-05 13:45 45.39251 23.32746 36025 ft 420 kts 314°
2026-05-05 13:45 45.43214 23.26642 36014 ft 420 kts 314°
2026-05-05 13:46 45.47158 23.20562 36020 ft 421 kts 314°
2026-05-05 13:46 45.51123 23.14429 36005 ft 421 kts 314°
2026-05-05 13:47 45.55085 23.08291 36014 ft 421 kts 314°
2026-05-05 13:47 45.59046 23.02147 36010 ft 420 kts 314°
2026-05-05 13:48 45.62977 22.96040 36002 ft 420 kts 314°
2026-05-05 13:48 45.66924 22.89881 36004 ft 420 kts 314°
2026-05-05 13:49 45.70871 22.83715 35988 ft 420 kts 314°
2026-05-05 13:49 45.74794 22.77582 35985 ft 420 kts 313°
2026-05-05 13:50 45.78736 22.71398 35987 ft 420 kts 313°
2026-05-05 13:50 45.82672 22.65200 35988 ft 420 kts 313°
2026-05-05 13:51 45.86604 22.58984 35987 ft 420 kts 313°
2026-05-05 13:51 45.90537 22.52766 35992 ft 421 kts 313°
2026-05-05 13:52 45.94473 22.46532 35997 ft 421 kts 313°
2026-05-05 13:52 45.98404 22.40289 36001 ft 421 kts 313°
2026-05-05 13:53 46.02309 22.34072 35996 ft 422 kts 313°
2026-05-05 13:53 46.06239 22.27807 35983 ft 422 kts 313°
2026-05-05 13:54 46.10170 22.21525 35985 ft 422 kts 312°
2026-05-05 13:54 46.13436 22.16290 35988 ft 423 kts 312°
2026-05-05 13:55 46.17364 22.09984 35994 ft 423 kts 312°
2026-05-05 13:55 46.21931 22.02633 35982 ft 423 kts 312°
2026-05-05 13:56 46.25852 21.96298 35987 ft 423 kts 312°
2026-05-05 13:56 46.29117 21.91024 35988 ft 423 kts 312°
2026-05-05 13:57 46.33037 21.84674 35999 ft 423 kts 312°
2026-05-05 13:57 46.36956 21.78313 35987 ft 423 kts 312°
2026-05-05 13:58 46.40866 21.71937 35975 ft 423 kts 311°
2026-05-05 13:58 46.44776 21.65548 35975 ft 424 kts 311°
2026-05-05 13:59 46.50619 21.56004 35971 ft 423 kts 311°
2026-05-05 14:00 46.56471 21.46394 35969 ft 424 kts 311°
2026-05-05 14:00 46.60369 21.39959 35971 ft 424 kts 311°
2026-05-05 14:01 46.64247 21.33568 35973 ft 424 kts 311°
2026-05-05 14:01 46.68146 21.27128 35970 ft 424 kts 311°
2026-05-05 14:02 46.72035 21.20664 35960 ft 424 kts 310°
2026-05-05 14:02 46.75895 21.14238 35958 ft 424 kts 310°
2026-05-05 14:03 46.79780 21.07760 35956 ft 424 kts 310°
2026-05-05 14:03 46.83739 21.01368 35955 ft 424 kts 312°
2026-05-05 14:04 46.87794 20.95100 35957 ft 424 kts 312°
2026-05-05 14:04 46.91846 20.88819 35956 ft 424 kts 312°
2026-05-05 14:05 46.95844 20.82536 35949 ft 425 kts 311°
2026-05-05 14:05 46.99855 20.76177 35951 ft 425 kts 311°
2026-05-05 14:06 47.03869 20.69811 35953 ft 425 kts 311°
2026-05-05 14:06 47.07876 20.63442 35953 ft 425 kts 311°
2026-05-05 14:07 47.11859 20.57107 35957 ft 425 kts 311°
2026-05-05 14:07 47.15860 20.50725 35952 ft 425 kts 311°
2026-05-05 14:08 47.19862 20.44327 35951 ft 425 kts 311°
2026-05-05 14:08 47.23861 20.37921 35956 ft 425 kts 311°
2026-05-05 14:09 47.27861 20.31492 35954 ft 426 kts 311°
2026-05-05 14:09 47.31830 20.25104 35955 ft 425 kts 311°
2026-05-05 14:10 47.35815 20.18667 35949 ft 425 kts 311°
2026-05-05 14:10 47.39799 20.12225 35942 ft 425 kts 311°
2026-05-05 14:11 47.43778 20.05766 35930 ft 425 kts 311°
2026-05-05 14:11 47.47729 19.99332 35929 ft 426 kts 310°
2026-05-05 14:12 47.51706 19.92846 35927 ft 426 kts 310°
2026-05-05 14:12 47.55687 19.86349 35925 ft 426 kts 310°
2026-05-05 14:13 47.59666 19.79828 35930 ft 427 kts 310°
2026-05-05 14:13 47.63617 19.73347 35932 ft 427 kts 310°
2026-05-05 14:14 47.67590 19.66803 35935 ft 427 kts 310°
2026-05-05 14:14 47.71556 19.60252 35934 ft 427 kts 309°
2026-05-05 14:15 47.75515 19.53685 35927 ft 427 kts 309°
2026-05-05 14:15 47.79473 19.47114 35924 ft 427 kts 309°
2026-05-05 14:16 47.83410 19.40584 35920 ft 427 kts 310°
2026-05-05 14:16 47.87381 19.33980 35918 ft 428 kts 310°
2026-05-05 14:17 47.91349 19.27346 35921 ft 429 kts 309°
2026-05-05 14:17 47.95314 19.20696 35926 ft 429 kts 309°
2026-05-05 14:18 47.99246 19.14089 35923 ft 429 kts 309°
2026-05-05 14:18 48.03207 19.07412 35921 ft 429 kts 309°
2026-05-05 14:19 48.07170 19.00731 35929 ft 429 kts 309°
2026-05-05 14:19 48.11122 18.94051 35931 ft 428 kts 309°
2026-05-05 14:20 48.15033 18.87414 35922 ft 427 kts 309°
2026-05-05 14:20 48.18960 18.80736 35917 ft 427 kts 309°
2026-05-05 14:21 48.22882 18.74048 35916 ft 427 kts 308°
2026-05-05 14:21 48.26805 18.67359 35922 ft 426 kts 308°
2026-05-05 14:22 48.30704 18.60673 35911 ft 425 kts 309°
2026-05-05 14:22 48.34570 18.54007 35899 ft 426 kts 309°
2026-05-05 14:23 48.38504 18.47335 35888 ft 427 kts 310°
2026-05-05 14:23 48.42579 18.40836 35896 ft 427 kts 311°
2026-05-05 14:24 48.46676 18.34355 35884 ft 427 kts 311°
2026-05-05 14:24 48.50717 18.27861 35891 ft 428 kts 310°
2026-05-05 14:25 48.54772 18.21277 35880 ft 428 kts 310°
2026-05-05 14:25 48.58820 18.14688 35881 ft 428 kts 310°
2026-05-05 14:26 48.62872 18.08089 35878 ft 428 kts 310°
2026-05-05 14:26 48.66891 18.01535 35886 ft 427 kts 310°
2026-05-05 14:27 48.70925 17.94934 35882 ft 427 kts 310°
2026-05-05 14:27 48.74951 17.88322 35874 ft 427 kts 309°
2026-05-05 14:28 48.78969 17.81719 35875 ft 426 kts 309°
2026-05-05 14:28 48.82958 17.75148 35860 ft 426 kts 310°
2026-05-05 14:29 48.86973 17.68515 35847 ft 427 kts 309°
2026-05-05 14:29 48.90983 17.61859 35854 ft 427 kts 310°
2026-05-05 14:30 48.94990 17.55194 35849 ft 427 kts 309°
2026-05-05 14:30 48.98991 17.48529 35855 ft 426 kts 309°
2026-05-05 14:31 49.02954 17.41905 35859 ft 426 kts 309°
2026-05-05 14:31 49.06944 17.35234 35854 ft 426 kts 309°
2026-05-05 14:32 49.10926 17.28555 35854 ft 425 kts 309°
2026-05-05 14:32 49.14903 17.21859 35844 ft 426 kts 309°
2026-05-05 14:33 49.18854 17.15180 35829 ft 426 kts 309°
2026-05-05 14:33 49.22827 17.08446 35814 ft 426 kts 309°
2026-05-05 14:34 49.26798 17.01710 35825 ft 426 kts 309°
2026-05-05 14:34 49.30770 16.94962 35815 ft 427 kts 309°
2026-05-05 14:35 49.34716 16.88235 35815 ft 427 kts 309°
2026-05-05 14:35 49.38685 16.81450 35817 ft 427 kts 309°
2026-05-05 14:36 49.42655 16.74660 35826 ft 427 kts 309°
2026-05-05 14:36 49.46620 16.67856 35824 ft 427 kts 309°
2026-05-05 14:37 49.50577 16.61044 35825 ft 427 kts 309°
2026-05-05 14:37 49.54500 16.54267 35822 ft 427 kts 309°
2026-05-05 14:38 49.58444 16.47430 35818 ft 427 kts 309°
2026-05-05 14:38 49.62382 16.40582 35819 ft 427 kts 309°
2026-05-05 14:39 49.66319 16.33727 35822 ft 426 kts 309°
2026-05-05 14:39 49.70245 16.26876 35818 ft 426 kts 309°
2026-05-05 14:40 49.74136 16.20060 35824 ft 425 kts 308°
2026-05-05 14:40 49.78049 16.13201 35820 ft 425 kts 308°
2026-05-05 14:41 49.81952 16.06341 35814 ft 424 kts 308°
2026-05-05 14:41 49.85844 15.99468 35822 ft 424 kts 308°
2026-05-05 14:42 49.89702 15.92638 35814 ft 423 kts 308°
2026-05-05 14:42 49.93578 15.85760 35806 ft 423 kts 308°
2026-05-05 14:43 49.97444 15.78871 35804 ft 423 kts 308°
2026-05-05 14:43 50.01309 15.71972 35803 ft 423 kts 308°
2026-05-05 14:44 50.05146 15.65116 35807 ft 423 kts 308°
2026-05-05 14:44 50.09373 15.58697 35800 ft 426 kts 314°
2026-05-05 14:45 50.13751 15.52480 35797 ft 426 kts 314°
2026-05-05 14:45 50.18143 15.46268 35796 ft 426 kts 314°
2026-05-05 14:46 50.22488 15.40068 35797 ft 426 kts 314°
2026-05-05 14:46 50.26845 15.33791 35808 ft 426 kts 314°
2026-05-05 14:47 50.31206 15.27501 35803 ft 426 kts 314°
2026-05-05 14:47 50.35563 15.21199 35807 ft 426 kts 314°
2026-05-05 14:48 50.39913 15.14892 35805 ft 426 kts 313°
2026-05-05 14:48 50.44228 15.08623 35806 ft 426 kts 313°
2026-05-05 14:49 50.48570 15.02304 35807 ft 426 kts 313°
2026-05-05 14:49 50.52906 14.95974 35820 ft 426 kts 313°
2026-05-05 14:50 50.57236 14.89625 35815 ft 426 kts 313°
2026-05-05 14:50 50.61535 14.83310 35817 ft 426 kts 313°
2026-05-05 14:51 50.65863 14.76936 35830 ft 426 kts 313°
2026-05-05 14:51 50.70190 14.70548 35833 ft 426 kts 313°
2026-05-05 14:52 50.74519 14.64149 35836 ft 426 kts 313°
2026-05-05 14:52 50.78845 14.57738 35825 ft 427 kts 313°
2026-05-05 14:53 50.83142 14.51351 35832 ft 427 kts 313°
2026-05-05 14:53 50.87463 14.44908 35828 ft 427 kts 313°
2026-05-05 14:54 50.91783 14.38446 35834 ft 427 kts 312°
2026-05-05 14:54 50.95568 14.31301 35853 ft 422 kts 304°
2026-05-05 14:55 50.99153 14.23995 35863 ft 422 kts 303°
2026-05-05 14:55 51.02772 14.16648 35855 ft 422 kts 303°
2026-05-05 14:56 51.06375 14.09290 35846 ft 422 kts 303°
2026-05-05 14:56 51.09946 14.01961 35854 ft 422 kts 303°
2026-05-05 14:57 51.13538 13.94569 35856 ft 422 kts 303°
2026-05-05 14:57 51.17120 13.87174 35859 ft 422 kts 303°
2026-05-05 14:58 51.20701 13.79762 35858 ft 422 kts 303°
2026-05-05 14:58 51.24277 13.72345 35869 ft 422 kts 303°
2026-05-05 14:59 51.27818 13.64954 35862 ft 421 kts 303°
2026-05-05 14:59 51.31373 13.57527 35862 ft 421 kts 303°
2026-05-05 15:00 51.34322 13.51345 35858 ft 420 kts 302°
2026-05-05 15:00 51.38469 13.42656 35872 ft 420 kts 302°
2026-05-05 15:01 51.41986 13.35274 35867 ft 420 kts 302°
2026-05-05 15:01 51.45513 13.27831 35871 ft 419 kts 302°
2026-05-05 15:02 51.49033 13.20376 35873 ft 419 kts 302°
2026-05-05 15:02 51.52546 13.12907 35878 ft 419 kts 302°
2026-05-05 15:03 51.56056 13.05426 35892 ft 419 kts 301°
2026-05-05 15:03 51.59865 12.98353 35882 ft 423 kts 307°
2026-05-05 15:04 51.63866 12.91410 35877 ft 423 kts 307°
2026-05-05 15:04 51.67857 12.84446 35880 ft 423 kts 307°
2026-05-05 15:05 51.73837 12.73988 35879 ft 423 kts 307°
2026-05-05 15:06 51.77795 12.67043 35891 ft 423 kts 307°
2026-05-05 15:06 51.81775 12.60039 35887 ft 424 kts 307°
2026-05-05 15:07 51.85754 12.53004 35898 ft 424 kts 307°
2026-05-05 15:07 51.89300 12.45524 35891 ft 414 kts 293°
2026-05-05 15:08 51.91205 12.36977 35889 ft 404 kts 279°
2026-05-05 15:08 51.92498 12.28120 35906 ft 404 kts 279°
2026-05-05 15:09 51.93804 12.19261 35893 ft 404 kts 279°
2026-05-05 15:09 51.95094 12.10391 35894 ft 404 kts 279°
2026-05-05 15:10 51.96357 12.01579 35894 ft 404 kts 279°
2026-05-05 15:10 51.97620 11.92699 35892 ft 404 kts 279°
2026-05-05 15:11 51.98880 11.83822 35894 ft 404 kts 278°
2026-05-05 15:11 52.00133 11.74935 35900 ft 404 kts 278°
2026-05-05 15:12 52.01394 11.66048 35898 ft 404 kts 278°
2026-05-05 15:12 52.02622 11.57373 35894 ft 404 kts 278°
2026-05-05 15:13 52.03891 11.48332 35898 ft 404 kts 278°
2026-05-05 15:13 52.05130 11.39433 35901 ft 404 kts 278°
2026-05-05 15:14 52.06359 11.30534 35912 ft 404 kts 278°
2026-05-05 15:14 52.07578 11.21668 35908 ft 404 kts 278°
2026-05-05 15:15 52.08799 11.12755 35663 ft 403 kts 278°
2026-05-05 15:15 52.09405 11.08308 35409 ft 402 kts 278°
2026-05-05 15:15 52.10008 11.03877 35160 ft 400 kts 278°
2026-05-05 15:15 52.10605 10.99469 34912 ft 398 kts 277°
2026-05-05 15:16 52.11195 10.95084 34664 ft 396 kts 277°
2026-05-05 15:16 52.11779 10.90721 34420 ft 393 kts 277°
2026-05-05 15:16 52.12351 10.86449 34206 ft 391 kts 277°
2026-05-05 15:16 52.12929 10.82135 33965 ft 389 kts 277°
2026-05-05 15:17 52.13506 10.77845 33704 ft 387 kts 277°
2026-05-05 15:17 52.14078 10.73603 33301 ft 382 kts 277°
2026-05-05 15:17 52.14641 10.69395 32842 ft 378 kts 277°
2026-05-05 15:17 52.15195 10.65228 32375 ft 375 kts 277°
2026-05-05 15:18 52.15742 10.61091 31930 ft 372 kts 277°
2026-05-05 15:18 52.16282 10.56978 31484 ft 370 kts 277°
2026-05-05 15:18 52.16818 10.52892 31039 ft 368 kts 277°
2026-05-05 15:18 52.17342 10.48878 30611 ft 367 kts 277°
2026-05-05 15:19 52.17872 10.44821 30177 ft 366 kts 278°
2026-05-05 15:19 52.18717 10.40834 29140 ft 385 kts 294°
2026-05-05 15:19 52.20219 10.37097 28055 ft 401 kts 300°
2026-05-05 15:19 52.21816 10.33385 27589 ft 397 kts 301°
2026-05-05 15:20 52.23406 10.29743 27192 ft 392 kts 301°
2026-05-05 15:20 52.24980 10.26148 26790 ft 388 kts 301°
2026-05-05 15:20 52.26520 10.22618 26395 ft 385 kts 301°
2026-05-05 15:20 52.28056 10.19063 26003 ft 382 kts 301°
2026-05-05 15:21 52.29573 10.15515 25596 ft 380 kts 301°
2026-05-05 15:21 52.31085 10.11976 25179 ft 379 kts 301°
2026-05-05 15:21 52.32592 10.08450 24772 ft 378 kts 301°
2026-05-05 15:21 52.34093 10.04934 24369 ft 377 kts 301°
2026-05-05 15:22 52.35594 10.01422 23932 ft 377 kts 302°
2026-05-05 15:22 52.37292 9.98123 23368 ft 382 kts 309°
2026-05-05 15:22 52.39086 9.94899 22807 ft 383 kts 309°
2026-05-05 15:22 52.40868 9.91747 22328 ft 381 kts 310°
2026-05-05 15:23 52.42672 9.88575 21869 ft 379 kts 310°
2026-05-05 15:23 52.44451 9.85443 21135 ft 373 kts 310°
2026-05-05 15:23 52.46209 9.82337 20359 ft 372 kts 310°
2026-05-05 15:23 52.47956 9.79237 19872 ft 370 kts 310°
2026-05-05 15:24 52.49694 9.76139 19475 ft 366 kts 310°
2026-05-05 15:24 52.51418 9.73057 19016 ft 364 kts 310°
2026-05-05 15:24 52.53127 9.69997 18528 ft 363 kts 311°
2026-05-05 15:24 52.54803 9.66993 18057 ft 362 kts 311°
2026-05-05 15:25 52.56489 9.63970 17621 ft 357 kts 310°
2026-05-05 15:25 52.58164 9.60965 17169 ft 354 kts 310°
2026-05-05 15:25 52.59823 9.57988 16701 ft 352 kts 311°
2026-05-05 15:25 52.61464 9.55030 16273 ft 348 kts 311°
2026-05-05 15:26 52.63090 9.52096 15856 ft 345 kts 310°
2026-05-05 15:26 52.64698 9.49195 15432 ft 342 kts 311°
2026-05-05 15:26 52.66294 9.46315 15013 ft 339 kts 311°
2026-05-05 15:26 52.67855 9.43496 14609 ft 336 kts 311°
2026-05-05 15:27 52.69421 9.40661 14203 ft 333 kts 311°
2026-05-05 15:27 52.70975 9.37843 13801 ft 331 kts 311°
2026-05-05 15:27 52.72516 9.35042 13366 ft 328 kts 310°
2026-05-05 15:27 52.74042 9.32270 12962 ft 325 kts 311°
2026-05-05 15:28 52.75553 9.29530 12556 ft 321 kts 311°
2026-05-05 15:28 52.77050 9.26810 12176 ft 318 kts 310°
2026-05-05 15:28 52.78532 9.24111 11791 ft 316 kts 310°
2026-05-05 15:28 52.79998 9.21434 11405 ft 313 kts 310°
2026-05-05 15:29 52.81455 9.18772 11023 ft 311 kts 310°
2026-05-05 15:29 52.82875 9.16179 10774 ft 304 kts 310°
2026-05-05 15:29 52.84263 9.13643 10464 ft 292 kts 310°
2026-05-05 15:29 52.85615 9.11171 9962 ft 286 kts 310°
2026-05-05 15:30 52.86926 9.08763 9569 ft 277 kts 310°
2026-05-05 15:30 52.88191 9.06441 9222 ft 266 kts 310°
2026-05-05 15:30 52.89419 9.04179 8896 ft 264 kts 310°
2026-05-05 15:30 52.90644 9.01919 8568 ft 263 kts 310°
2026-05-05 15:31 52.91868 8.99661 8240 ft 263 kts 310°
2026-05-05 15:31 52.93094 8.97405 7902 ft 263 kts 310°
2026-05-05 15:31 52.94302 8.95183 7586 ft 263 kts 310°
2026-05-05 15:31 52.95519 8.92938 7260 ft 263 kts 310°
2026-05-05 15:32 52.96743 8.90677 6915 ft 264 kts 311°
2026-05-05 15:32 52.97973 8.88405 6595 ft 265 kts 311°
2026-05-05 15:32 52.99204 8.86123 6252 ft 266 kts 311°
2026-05-05 15:32 53.00436 8.83836 5910 ft 265 kts 311°
2026-05-05 15:33 53.01668 8.81549 5547 ft 266 kts 312°
2026-05-05 15:33 53.02896 8.79257 5233 ft 266 kts 309°
2026-05-05 15:33 53.03737 8.76609 4912 ft 265 kts 283°
2026-05-05 15:33 53.03725 8.73575 4581 ft 265 kts 257°
2026-05-05 15:34 53.03208 8.70630 4249 ft 267 kts 253°
2026-05-05 15:34 53.02615 8.67706 3974 ft 267 kts 252°
2026-05-05 15:34 53.02011 8.64786 3718 ft 267 kts 252°
2026-05-05 15:34 53.01401 8.61882 3463 ft 267 kts 252°
2026-05-05 15:35 53.00786 8.58986 3193 ft 264 kts 252°
2026-05-05 15:35 53.00181 8.56150 3020 ft 256 kts 252°
2026-05-05 15:35 52.99607 8.53476 2999 ft 242 kts 251°
2026-05-05 15:35 52.99107 8.50913 2995 ft 226 kts 263°
2026-05-05 15:36 52.99363 8.48513 3000 ft 205 kts 308°
2026-05-05 15:36 53.00441 8.47272 3034 ft 180 kts 350°
2026-05-05 15:36 53.01685 8.47232 3014 ft 179 kts 13°
2026-05-05 15:36 53.02813 8.48036 3000 ft 177 kts 36°
2026-05-05 15:37 53.03640 8.49537 2997 ft 178 kts 59°
2026-05-05 15:37 53.04027 8.51472 2993 ft 182 kts 82°
2026-05-05 15:37 53.04088 8.53564 2855 ft 179 kts 85°
2026-05-05 15:37 53.04135 8.55594 2648 ft 173 kts 85°
2026-05-05 15:38 53.04182 8.57559 2429 ft 168 kts 89°
2026-05-05 15:38 53.04226 8.59479 2202 ft 164 kts 85°
2026-05-05 15:38 53.04274 8.61351 1987 ft 161 kts 85°
2026-05-05 15:38 53.04320 8.63207 1773 ft 161 kts 85°
2026-05-05 15:39 53.04365 8.65052 1562 ft 155 kts 85°
2026-05-05 15:39 53.04405 8.66733 1357 ft 142 kts 84°
2026-05-05 15:39 53.04443 8.68322 1161 ft 135 kts 85°
2026-05-05 15:39 53.04480 8.69861 977 ft 133 kts 85°
2026-05-05 15:40 53.04509 8.71387 780 ft 132 kts 88°
2026-05-05 15:40 53.04508 8.72904 584 ft 130 kts 85°
2026-05-05 15:40 53.04586 8.74412 411 ft 133 kts 85°
2026-05-05 15:40 53.04615 8.75954 227 ft 133 kts 86°
2026-05-05 15:41 53.04662 8.77496 61 ft 133 kts 86°
2026-05-05 15:41 53.04703 8.78960 30 ft 114 kts 86°
2026-05-05 15:41 53.04714 8.79808 21 ft 30 kts 88°
2026-05-05 15:41 53.04824 8.79968 26 ft 25 kts 342°
2026-05-05 15:42 53.04874 8.79715 26 ft 25 kts 265°
2026-05-05 15:42 53.04864 8.79409 23 ft 28 kts 264°
2026-05-05 15:42 53.04859 8.79093 23 ft 22 kts 267°
2026-05-05 15:42 53.04849 8.78823 20 ft 19 kts 266°
2026-05-05 15:43 53.04880 8.78671 22 ft 15 kts 325°
2026-05-05 15:43 53.04988 8.78631 22 ft 17 kts 334°
2026-05-05 15:43 53.05068 8.78523 22 ft 7 kts 317°
2026-05-05 15:43 53.05101 8.78538 22 ft 6 kts 35°
2026-05-05 15:44 53.05134 8.78590 22 ft 2 kts 47°
2026-05-05 15:44 53.05138 8.78598 22 ft 0 kts 49°